Wichita Falls, TX

8:56 AM CDT on October 19, 2017 (GMT -0500)
Sheppard Air Force Base-Wichita Falls Municipal

Weather History for KSPS - September, 2012

Change the Weather History Date:

Sunday, September 2, 2012

  Actual Average Record
Temperature  
Mean Temperature 91 °F 81 °F  
Max Temperature 103 °F 93 °F 108 °F (2000)
Min Temperature 78 °F 68 °F 56 °F (1974)
Degree Days  
Heating Degree Days 0 0  
Month to date heating degree days 0 0  
Since 1 July heating degree days 0 0  
Cooling Degree Days 26 16  
Month to date cooling degree days 49 32  
Year to date cooling degree days 2511 1977  
Growing Degree Days 40 (Base 50)    
Moisture  
Dew Point 64 °F    
Average Humidity 45    
Maximum Humidity 69    
Minimum Humidity 17    
Precipitation  
Precipitation 0.00 in 0.10 in 2.05 in (1918)
Month to date precipitation 0.00 0.20  
Year to date precipitation 15.28 19.93  
Sea Level Pressure  
Sea Level Pressure 29.88 in    
Wind  
Wind Speed 11 mph (SSW)    
Max Wind Speed 20 mph    
Max Gust Speed 23 mph    
Visibility 10 miles    
Events      
T = Trace of Precipitation, MM = Missing Value Source: NWS Daily Summary

Daily Weather History Graph

Daily Weather History Graph

Search for Another Location

Airport or City:

Trip Planner

Search our weather history database for the weather conditions in past years. The results will help you decide how hot, cold, wet, or windy it might be!

Date:

Astronomy

Sep. 02, 2012 Rise Set
Actual Time 7:08 AM CDT 7:57 PM CDT
Civil Twilight 6:43 AM CDT 8:23 PM CDT
Nautical Twilight 6:13 AM CDT 8:53 PM CDT
Astronomical Twilight 5:42 AM CDT 9:23 PM CDT
Moon 8:56 PM CDT (9/2) 9:09 AM CDT (9/2)
Length of Visible Light 13h 39m
Length of Day
12h 49m
Waning Gibbous, 95% of the Moon is Illuminated
Sep 2
Waning Gibbous
Sep 8
Last Quarter
Sep 15
New
Sep 22
First Quarter
Sep 29
Full

Hourly Weather History & Observations

Time (CDT) Temp. Heat Index Dew Point Humidity Pressure Visibility Wind Dir Wind Speed Gust Speed Precip Events Conditions
12:52 AM 84.9 °F 85.9 °F 63.0 °F 48% 29.88 in 10.0 mi South 10.4 mph - N/A   Clear
1:52 AM 82.9 °F 84.0 °F 63.0 °F 51% 29.88 in 10.0 mi South 10.4 mph - N/A   Clear
2:52 AM 80.1 °F 81.5 °F 63.0 °F 56% 29.88 in 10.0 mi South 8.1 mph - N/A   Clear
3:52 AM 81.0 °F 82.2 °F 63.0 °F 54% 29.88 in 10.0 mi SSW 11.5 mph - N/A   Clear
4:52 AM 78.8 °F - 64.4 °F 61% 29.93 in 10.0 mi SSW 10.4 mph - N/A   Clear
5:52 AM 81.0 °F 83.0 °F 66.0 °F 60% 29.88 in 10.0 mi SSW 12.7 mph - N/A   Clear
6:52 AM 79.0 °F - 66.9 °F 66% 29.89 in 10.0 mi SSW 11.5 mph - N/A   Clear
7:52 AM 78.8 °F - 68.0 °F 69% 29.96 in 10.0 mi SSW 10.4 mph - N/A   Clear
8:52 AM 82.0 °F 84.9 °F 68.0 °F 62% 29.93 in 10.0 mi SW 13.8 mph - N/A   Clear
9:52 AM 87.1 °F 89.9 °F 66.9 °F 51% 29.94 in 10.0 mi SW 15.0 mph - N/A   Clear
10:52 AM 91.9 °F 95.4 °F 66.9 °F 44% 29.94 in 10.0 mi SW 16.1 mph - N/A   Clear
11:52 AM 93.9 °F 97.5 °F 66.9 °F 41% 29.94 in 10.0 mi WSW 13.8 mph - N/A   Clear
12:52 PM 97.0 °F 99.9 °F 64.9 °F 35% 29.91 in 10.0 mi SW 5.8 mph - N/A   Clear
1:52 PM 99.0 °F 100.5 °F 62.1 °F 30% 29.89 in 10.0 mi SSW 9.2 mph - N/A   Clear
2:52 PM 100.9 °F 102.1 °F 61.0 °F 27% 29.86 in 10.0 mi SSW 11.5 mph 21.9 mph N/A   Clear
3:52 PM 100.9 °F 102.1 °F 61.0 °F 27% 29.84 in 10.0 mi SSW 9.2 mph - N/A   Clear
4:52 PM 100.9 °F 102.1 °F 61.0 °F 27% 29.83 in 10.0 mi SSE 10.4 mph 20.7 mph N/A   Clear
5:52 PM 100.9 °F 102.7 °F 62.1 °F 28% 29.81 in 10.0 mi SSE 16.1 mph 20.7 mph N/A   Clear
6:52 PM 98.1 °F 96.8 °F 57.0 °F 25% 29.81 in 10.0 mi South 13.8 mph - N/A   Clear
7:52 PM 93.9 °F 95.6 °F 64.0 °F 37% 29.82 in 10.0 mi SSE 11.5 mph - N/A   Clear
8:52 PM 89.1 °F 90.3 °F 64.0 °F 43% 29.83 in 10.0 mi SSE 9.2 mph - N/A   Clear
9:52 PM 86.0 °F 87.6 °F 64.9 °F 49% 29.84 in 10.0 mi SSE 9.2 mph - N/A   Clear
10:52 PM 82.0 °F 83.8 °F 64.9 °F 56% 29.84 in 10.0 mi SSE 6.9 mph - N/A   Clear
11:52 PM 80.1 °F 82.1 °F 66.0 °F 62% 29.85 in 10.0 mi SSE 8.1 mph - N/A   Clear